Location: Newark
(47.1042°N, 8.6744°E)
Time: 18:29:04
(UTC+00:00)

N. Korean satellite - Pass Details

Date: 17 October 2019
Orbit: 456 x 506 km, 97.2° (Epoch: 17 November)

Event Time Altitude Azimuth Distance (km) Brightness Sun altitude
Rises 04:29:26 0° 27° (NNE) 2,545 10.6 -13.7°
Reaches altitude 10° 04:31:59 10° 47° (NE) 1,670 10.0 -13.3°
Maximum altitude 04:34:33 18° 93° (E) 1,242 9.8 -12.8°
Drops below altitude 10° 04:37:07 10° 138° (SE) 1,679 9.9 -12.4°
Sets 04:39:41 0° 158° (SSE) 2,565 10.6 -12.0°
